This demonstration page uses our WeatherBlox Daily Observations layout. Learn more.

Left ArrowRight Arrow

Hourly Observations for December 21, 2015

Temp ( °F °C ) Dew Point ( °F °C ) Humidity (%) Winds ( mph kmh ) Pressure ( in mb ) Visibility ( mi km ) Precip ( " mm )
12:53 am 00:53 Clear 42 5.6 31 -0.6 65 65 NE 3 6 30.38 1029 10 16 0.00 0.00
1:53 am 01:53 Clear 43 6.1 32 0 65 65 Calm 30.38 1029 10 16 0.00 0.00
2:53 am 02:53 Clear 44 6.7 32 0 63 63 NE 3 6 30.35 1028 10 16 0.00 0.00
3:53 am 03:53 Clear 45 7.2 31 -0.6 58 58 N 3 6 30.34 1028 10 16 0.00 0.00
4:53 am 04:53 Partly Cloudy 44 6.7 33 0.6 65 65 Calm 30.34 1027 10 16 0.00 0.00
5:24 am 05:24 Cloudy 46 8 34 1 62 62 NE 3 6 30.33 1027 10 16 0.00 0.00
5:53 am 05:53 Cloudy 46 7.8 33 0.6 61 61 ENE 3 6 30.34 1027 10 16 0.00 0.00
6:53 am 06:53 Mostly Cloudy 46 7.8 34 1.1 63 63 N 5 7 30.34 1027 10 16 0.00 0.00
7:53 am 07:53 Mostly Cloudy 47 8.3 36 2.2 66 66 NNE 3 6 30.33 1027 10 16 0.00 0.00
8:13 am 08:13 Cloudy 48 8.9 36 2.2 63 63 NE 5 7 30.33 1027 10 16 0.00 0.00
8:53 am 08:53 Cloudy 48 8.9 37 2.8 66 66 ENE 5 7 30.34 1027 10 16 0.00 0.00
9:53 am 09:53 Mostly Cloudy 50 10 39 3.9 66 66 NE 6 9 30.34 1027 10 16 0.00 0.00
10:53 am 10:53 Mostly Cloudy 53 11.7 43 6.1 69 69 ENE 5 7 30.33 1027 10 16 0.00 0.00
11:53 am 11:53 Mostly Cloudy 54 12.2 44 6.7 69 69 E 5 7 30.29 1026 10 16 0.00 0.00
12:53 pm 12:53 Partly Cloudy 55 12.8 45 7.2 69 69 VRB 3 6 30.26 1025 10 16 0.00 0.00
1:24 pm 13:24 Mostly Cloudy 56 13.3 46 7.8 70 70 ESE 3 6 30.24 1024 10 16 0.00 0.00
1:53 pm 13:53 Mostly Cloudy 59 15 47 8.3 64 64 VRB 3 6 30.23 1024 10 16 0.00 0.00
2:53 pm 14:53 Cloudy 59 15 48 8.9 67 67 ESE 5 7 30.20 1023 10 16 0.00 0.00
3:53 pm 15:53 Sunny 59 15 48 8.9 67 67 SE 7 11 30.17 1022 10 16 0.00 0.00
4:53 pm 16:53 Sunny 58 14.4 48 8.9 70 70 ESE 5 7 30.16 1022 10 16 0.00 0.00
5:53 pm 17:53 Mostly Clear 57 13.9 48 8.9 72 72 E 6 9 30.16 1021 10 16 0.00 0.00
6:53 pm 18:53 Partly Cloudy 56 13.3 48 8.9 75 75 VRB 5 7 30.15 1021 10 16 0.00 0.00
7:03 pm 19:03 Mostly Cloudy with Light Rain 55 13 48 9 77 77 E 5 7 30.15 1021 10 16 0.00 0.00
7:53 pm 19:53 Cloudy with Rain 55 12.8 49 9.4 80 80 E 5 7 30.15 1021 9 14 0.01 0.25
8:27 pm 20:27 Cloudy with Heavy Rain 53 11.7 51 10.6 93 93 Calm 30.18 1022 3 5 0.12 3.05
8:53 pm 20:53 Cloudy with Heavy Rain 53 11.7 50 10 89 89 ENE 6 9 30.13 1020 3 5 0.24 6.10
9:53 pm 21:53 Cloudy with Light Rain 53 11.7 51 10.6 93 93 Calm 30.11 1020 6 10 0.10 2.54
10:53 pm 22:53 Cloudy with Light Rain 53 11.7 51 10.6 93 93 NE 5 7 30.10 1019 5 8 0.05 1.27
11:53 pm 23:53 Cloudy with Light Rain 53 11.7 51 10.6 93 93 Calm 30.08 1019 4 6 0.03 0.76

Powered by AerisWeather